DELTA 1 DEB, 21754

Orbit data source: Space-Track

DELTA 1 DEB, 21754 is space debris in SSO originally from a launch on Thu, 12 Jun 1975 UTC launched from the Air Force Western Test Range (AFWTR). Debris objects in space refer to the collection of defunct objects orbiting the Earth. Examples of debris include non-operational satellites, rocket bodies, and fragments generated from explosions, collisions, or faulty payload assembly.

Loading next visibility...
Identifier
21754, 1975-052JQ
Orbit
SSO
Country
Flag of USUS
Related business
Manufacturer
Unknown
Mission
Spacecraft
Bus & Motor
Unknown
Mass
Unknown
Launch date (UTC)
1975-06-12 (50 years ago)
Launch vehicle
Unknown
Launch site
Air Force Western Test Range (AFWTR)
Object type
Payload
Rocket body
Debris
Shape & HBR
Unknown shape, 0.1 m
Radar Cross Section
Small (<0.1 m²)

Expand to show TLE details & history
Last TLE update: 2 days ago

TLE from 2 days ago
0 DELTA 1 DEB
1 21754U 75052JQ  25305.76467976  .00000205  00000-0  48320-3 0  9992
2 21754 100.0406 228.7434 0075393 144.5830 244.0930 13.35222418666948
Epoch: 2025-11-01T18:21Z
TLE epoch observation values (Epoch: 2025-11-01T18:21:08.331Z)
Latitude
27.47809°
Longitude
-93.08797°
Altitude
1,155.425 km
Speed
7.266 km/s
True Right ascension
14h 53m 56s
True Declination
27° 20' 42"
Sunlit
Object was in daylight at epoch
Visualization orbit readout
Latitude
Unknown
Longitude
Unknown
Altitude
Unknown
Speed
Unknown
Apparent Right ascension
Unknown
Apparent Declination
Unknown
Sunlit
N/A
Visualization observer readout
Local Sidereal Time
08:42:30
Azimuth
Unknown
Elevation
Unknown
Doppler factor
Unknown
Orbital elements
Apogee altitude
1,181.032 km
Perigee altitude
1,067.903 km
Semi-major axis
7,502.605 km
Eccentricity
0.00754
Inclination
100.0406°
RAAN
228.7434°
Arg. of periapsis
144.583°
True anomaly
243.31909°
Mean anomaly
244.093°
Eccentric anomaly
243.70573°
Mean motion
3.33984 °/min
Orbital period
107.79 mins
BSTAR
0.0004832
Loading maneuver chart data...
Computing Atmospheric mass density...

Documentation

Showing up to 5 results
|